Regional Weather Roundup
Issued by NWS

Home | Current Version | Previous Version | Text Only | Print | Product List | Glossary On
Versions: 1 2 3 4 5 6 7 8 9 10 11 12 13 14 15 16 17 18 19 20 21 22 23 24 25 26 27 28 29 30 31 32 33 34 35 36 37 38 39 40 41 42 43 44 45 46 47 48 49 50
000
ASUS43 KDTX 030310
RWRMI
MICHIGAN HOURLY REGIONAL WEATHER ROUNDUP
NATIONAL WEATHER SERVICE DETROIT/PONTIAC MI
1000 PM EST FRI DEC 02 2016

NOTE: "FAIR" INDICATES FEW OR NO CLOUDS BELOW 12,000 FEET WITH NO
SIGNIFICANT WEATHER AND/OR OBSTRUCTION TO VISIBILITY.

MIZ047>049-052>055-059>063-066>070-074>076-081>083-030400-
SOUTHEAST LOWER MICHIGAN

CITY           SKY/WX    TMP DP  RH WIND       PRES   REMARKS
ADRIAN         CLOUDY    36  29  75 NW5       30.25R WCI  32
ALMA           CLOUDY    36  30  79 W10       30.22S WCI  28
ANN ARBOR      CLOUDY    34  26  72 W9        30.21S WCI  27
BAD AXE        CLOUDY    38  32  79 W10G17    30.15R WCI  31
CARO           CLOUDY    36  32  85 SW10G17   30.19R WCI  28
DETROIT CITY   CLOUDY    37  28  70 W8        30.21R WCI  31
DETROIT        CLOUDY    36  27  69 W12       30.22R WCI  28
FLINT          PTCLDY    33  28  81 W9        30.21R WCI  25
GROSSE ILE     CLOUDY    36  27  70 NW10      30.21S WCI  28
HILLSDALE      CLOUDY    34  28  80 NW8       30.22R WCI  27
HOWELL         CLOUDY    35  28  75 W9        30.21R WCI  27

CITY           SKY/WX    TMP DP  RH WIND       PRES   REMARKS
JACKSON        CLOUDY    34  26  72 NW8       30.24R WCI  27
LAMBERTVILLE   CLOUDY    38  29  71 NW3       30.24R
LANSING        CLOUDY    35  27  72 W10       30.23R WCI  27
LAPEER         NOT AVBL
MASON          CLOUDY    35  29  78 W6        30.23R WCI  30
MONROE         CLOUDY    36  28  73 NW7       30.22R WCI  30
MT. CLEMENS    CLOUDY    38  29  69 W13       30.17R WCI  30
PONTIAC        PTCLDY    33  27  78 W12       30.19R WCI  24
PORT HOPE        N/A     41  35  79 NW15G25   30.11R
PORT HURON     CLOUDY    37  30  75 W9G16     30.17R WCI  31
TRI CITIES     MOCLDY    34  31  88 W9        30.20R WCI  27
MIDLAND        CLOUDY    35  29  80 W6        30.19R WCI  30
TROY           CLOUDY    37  27  66 W8        30.22R WCI  31
SAGINAW HB     MOCLDY    36  30  80 W9        30.19R WCI  29
$$
MIZ043>046-050>051-056>058-064>065-071>073-077>080-030400-
SOUTHWEST LOWER MICHIGAN

CITY           SKY/WX    TMP DP  RH WIND       PRES   REMARKS
BATTLE CREEK   CLOUDY    35  29  78 W6        30.26R WCI  30
BENTON HARBOR  CLOUDY    38  27  64 W12       30.28R WCI  30
BIG RAPIDS     CLOUDY    36  30  79 W13       30.20S WCI  27
COLDWATER      CLOUDY    36  28  74 W6        30.26R WCI  31
FREMONT        CLOUDY    35  26  70 W6        30.24R WCI  30
HOLLAND        CLOUDY    38  29  70 NW7       30.26R WCI  33
GRAND RAPIDS   CLOUDY    36  27  69 NW9       30.26R WCI  29
IONIA          CLOUDY    35  26  71 W9        30.24R WCI  27
KALAMAZOO      CLOUDY    36  28  73 W5        30.26R WCI  32
LUDINGTON      CLOUDY    37  32  80 W3        30.23R
MARSHALL       CLOUDY    35  29  80 W6        30.25R WCI  30
MOUNT PLEASANT CLOUDY    35  30  82 W10       30.20R WCI  27
MUSKEGON       CLOUDY    37  29  72 VRB5      30.26R WCI  33
SOUTH HAVEN    CLOUDY    40  30  67 CALM      30.27R
$$
MIZ016>042-030400-
NORTHERN LOWER MICHIGAN

CITY           SKY/WX    TMP DP  RH WIND       PRES   REMARKS
ALPENA         CLOUDY    38  33  82 W7        30.13R WCI  33
BEAVER ISLAND  CLOUDY    37  32  82 NW8       30.18S WCI  31
BELLAIRE       MIX PCPN  38  36  94 CALM      30.19R
CADILLAC       CLOUDY    34  32  93 W7        30.18R WCI  28
CHARLEVOIX     CLOUDY    39  35  84 NW10      30.21R WCI  32
FRANKFORT      CLOUDY    39  34  81 NW5       30.21S
GAYLORD        LGT RAIN  36  32  85 NW5       30.14R WCI  32
GRAYLING       LGT RAIN  35  34  96 W7        30.16R WCI  29
HARBOR SPRINGS CLOUDY    37  33  84 W6        30.16S WCI  33
HOUGHTON LAKE  CLOUDY    36  32  85 W13       30.17R WCI  27
MANISTEE       CLOUDY    38  32  79 W8        30.22S WCI  32
OSCODA         CLOUDY    40  33  75 NW13      30.13R WCI  33
PELLSTON       CLOUDY    38  31  76 NW8       30.16R WCI  32
ROGERS CITY    MOCLDY    37  33  83 W7G16     30.14R WCI  32
TRAVERSE CITY  CLOUDY    38  34  85 W7        30.19R WCI  33
$$
MIZ007>008-015-030400-
EASTERN UPPER MICHIGAN

CITY           SKY/WX    TMP DP  RH WIND       PRES   REMARKS
KINROSS        FLURRIES  33  32  96 NW8       30.13R WCI  26
MACKINAC ISLAN CLOUDY    35  32  90 NW8       30.15R WCI  28
NEWBERRY       CLOUDY    33  32  96 W7        30.15R WCI  27
S. S. MARIE    FLURRIES  36  33  89 NW7       30.11R WCI  30
MUNISING         N/A     37  34  89 MISG      30.18R
$$
MIZ004>006-011>014-085-030400-
CENTRAL UPPER MICHIGAN

CITY           SKY/WX    TMP DP  RH WIND       PRES   REMARKS
MANISTIQUE     CLOUDY    34  32  92 W6        30.19R WCI  29
ESCANABA       CLOUDY    34  29  82 W5        30.22R WCI  30
MENOMINEE      CLOUDY    35  28  75 NW6       30.24R WCI  30
SAWYER-GWINN   CLOUDY    32  28  86 NW7       30.19R WCI  26
$$
MIZ001>003-009>011-084-030400-
WESTERN UPPER MICHIGAN

CITY           SKY/WX    TMP DP  RH WIND       PRES   REMARKS
IRON MOUNTAIN  CLOUDY    33  25  72 NW7       30.20R WCI  27
HOUGHTON       CLOUDY    32  27  81 NW5       30.20R WCI  27
COPPER HARBOR    N/A     36  28  73 N14       30.20R WCI  27
IRONWOOD       CLOUDY    28  26  92 W9        30.24S WCI  19
$$

ABBREVIATIONS USED IN REMARKS
   TC - TEMPERATURE IN CELSIUS
  WCI - WIND CHILL INDEX
   HX - HEAT INDEX
  VSB - VISIBILITY





USA.gov is the U.S. government's official web portal to all federal, state and local government web resources and services.